{"data":{"norad_id":56523,"intl_designator":"2023-065W","name":"STARLINK-6328","alt_names":[],"object_type":"PAYLOAD","status":"ACTIVE","operator":null,"country":"US","launch_date":"2023-05-14","launch_site_code":"AFETR","launch_vehicle":null,"mission":null,"orbit_class":"UNKNOWN","rcs_meters":null,"size_class":null,"mass_kg":null,"dimensions":null,"purposes":["comms"],"wikipedia_slug":null,"has_3d_model":false,"image_url":null,"decayed_at":null,"tle_current":{"epoch":"2026-05-24T11:09:15.921504Z","epoch_age_seconds":117769,"freshness":"FRESH","line1":"1 56523U 23065W   26144.46476761  .00001009  00000+0  46194-4 0  9992","line2":"2 56523  43.0024 144.9542 0001617 284.9871  75.0802 15.27578327168182","mean_motion":15.27578327,"eccentricity":0.0001617,"inclination_deg":43.0024,"raan_deg":144.9542,"arg_perigee_deg":284.9871,"mean_anomaly_deg":75.0802,"bstar":4.6194e-5,"rev_number":16818,"period_min":94.266851954361,"perigee_km":481.94465100631,"apogee_km":484.16356020986,"semimajor_km":6861.1911056081,"source":"CELESTRAK","updated_at":"2026-05-25T13:38:18.110087Z"}}}